Starlink 5399

operational
NORAD ID: 54788 Int'l Des: 2022-175 Owner: SPXS Country: US Constellation: starlink
LEOCIRCULAR

About Starlink 5399

Description loading...

Live Position

Loading 3D Globe...

Upcoming Passes

Altitude History

Altitude vs Time

uPlot chart will show altitude changes over time

Two-Line Element Set

1 54788U 22175AG 25259.82436474 -.00000228 00000-0 37358-5 0 9994
2 54788 53.2167 89.5001 0001435 94.5555 265.5602 15.08834939153888
Epoch: Sep 16, 2025 • Age: 31 hours

Current Status

Altitude 542.5 km
Velocity 7.60 km/s
Sub-Earth Point 39.97°N, 170.33°W
Launch Date Dec 17, 2022
Age 2.7 years
Type internet

Technical Details

Classification Payload
Mass 305.00 kg
Dry Mass 290.00 kg
Total Mass 305.00 kg
Length 0.20 m
Diameter 2.80 m
Span 9.00 m
Shape Box + pan
Manufacturer SPXS
Bus Type Starlink
Phase Status In Orbit
Owner/State SPXS/US

Large Constellations

Loading constellations...